Location: Crab Orchard
(37.7292°N, 88.8042°W)
Time: 11:14:53
(UTC+00:00)

Cosmos 2251 Rocket - Pass Details

Date: 08 December 2019
Orbit: 765 x 791 km, 74.0° (Epoch: 25 January)

Event Time Altitude Azimuth Distance (km) Brightness Sun altitude
Rises 23:30:09 0° 203° (SSW) 3,257 7.5 -10.5°
Reaches altitude 10° 23:32:33 10° 206° (SSW) 2,329 6.7 -11.0°
Maximum altitude 23:37:49 68° 289° (WNW) 838 3.9 -11.9°
Drops below altitude 10° 23:43:05 10° 13° (NNE) 2,327 5.7 -12.9°
Enters shadow 23:45:18 - 16° (NNE) 3,182 6.4 -13.3°
